AUA42C KDFW-LOWW

Flight info

Callsign AUA42C
Flight time N/A
Altitude 35000
Route KELME141014 EBONY N433B ELSIR 5050N 5140N 5130N 5120N DINIM ELSOX ARKIL SIDDI DAWLY L620 SAM M140 DVR UL9 KONAN UL607 KOK MATUG AMASI BOMBI DETEV DINKU BESNI ALUTU AKIMA MASUR LOWW
Aircraft A343/H-SDE2E3FGHIJ4J5M1RWXY/LB1D1

Departure

Time N/A
Airport Dallas Fort Worth International Airport (KDFW)

Arrival

Time 2026-04-25 23:44
Airport Vienna International Airport (LOWW)
Time Latitude Longitude Altitude Speed Heading
2026-04-25 22:08 51.22816 1.14850 37275 ft 482 kts 79°
2026-04-25 22:08 51.23475 1.20105 37261 ft 482 kts 79°
2026-04-25 22:08 51.24788 1.30595 37263 ft 482 kts 79°
2026-04-25 22:09 51.26035 1.41127 37254 ft 483 kts 81°
2026-04-25 22:09 51.26022 1.51754 37260 ft 483 kts 97°
2026-04-25 22:10 51.24775 1.62298 37258 ft 483 kts 102°
2026-04-25 22:10 51.23210 1.72744 37257 ft 484 kts 103°
2026-04-25 22:11 51.21636 1.83189 37256 ft 484 kts 103°
2026-04-25 22:11 51.20099 1.93648 37250 ft 483 kts 103°
2026-04-25 22:12 51.18588 2.04021 37247 ft 482 kts 103°
2026-04-25 22:12 51.17322 2.12675 37246 ft 482 kts 103°
2026-04-25 22:13 51.15528 2.24839 37247 ft 482 kts 103°
2026-04-25 22:13 51.13982 2.35241 37248 ft 482 kts 103°
2026-04-25 22:14 51.12427 2.45629 37249 ft 482 kts 103°
2026-04-25 22:14 51.10864 2.56003 37246 ft 482 kts 103°
2026-04-25 22:15 51.09303 2.66302 37245 ft 482 kts 103°
2026-04-25 22:16 51.06778 2.81778 37261 ft 482 kts 104°
2026-04-25 22:16 51.05036 2.92082 37259 ft 482 kts 104°
2026-04-25 22:17 51.03303 3.02380 37256 ft 482 kts 104°
2026-04-25 22:17 51.01583 3.12603 37252 ft 482 kts 104°
2026-04-25 22:18 50.99846 3.22879 37250 ft 482 kts 104°
2026-04-25 22:18 50.98101 3.33146 37247 ft 482 kts 104°
2026-04-25 22:19 50.96642 3.41672 37247 ft 481 kts 105°
2026-04-25 22:19 50.94881 3.51912 37247 ft 481 kts 105°
2026-04-25 22:20 50.93111 3.62144 37249 ft 481 kts 105°
2026-04-25 22:20 50.91331 3.72378 37249 ft 481 kts 105°
2026-04-25 22:21 50.89544 3.82587 37247 ft 480 kts 105°
2026-04-25 22:21 50.87750 3.92782 37246 ft 480 kts 105°
2026-04-25 22:22 50.85960 4.02895 37246 ft 480 kts 105°
2026-04-25 22:22 50.84143 4.13105 37244 ft 480 kts 105°
2026-04-25 22:23 50.82333 4.23215 37241 ft 480 kts 105°
2026-04-25 22:23 50.80505 4.33373 37240 ft 480 kts 105°
2026-04-25 22:24 50.78665 4.43538 37238 ft 481 kts 105°
2026-04-25 22:24 50.76811 4.53721 37239 ft 482 kts 106°
2026-04-25 22:25 50.74948 4.63896 37239 ft 482 kts 106°
2026-04-25 22:25 50.73075 4.74070 37231 ft 483 kts 107°
2026-04-25 22:26 50.71198 4.84210 37239 ft 483 kts 107°
2026-04-25 22:26 50.69306 4.94383 37236 ft 483 kts 107°
2026-04-25 22:27 50.67414 5.04491 37229 ft 483 kts 107°
2026-04-25 22:27 50.65502 5.14655 37231 ft 483 kts 108°
2026-04-25 22:28 50.63581 5.24807 37235 ft 484 kts 108°
2026-04-25 22:28 50.61647 5.34980 37228 ft 485 kts 108°
2026-04-25 22:29 50.59702 5.45151 37219 ft 484 kts 108°
2026-04-25 22:29 50.57748 5.55314 37222 ft 485 kts 108°
2026-04-25 22:30 50.54812 5.70487 37218 ft 486 kts 108°
2026-04-25 22:30 50.53168 5.78930 37220 ft 486 kts 108°
2026-04-25 22:31 50.50843 5.90806 37220 ft 486 kts 109°
2026-04-25 22:31 50.48857 6.00891 37212 ft 486 kts 109°
2026-04-25 22:32 50.46851 6.11029 37215 ft 486 kts 109°
2026-04-25 22:32 50.44835 6.21160 37210 ft 486 kts 109°
2026-04-25 22:33 50.42812 6.31279 37201 ft 486 kts 109°
2026-04-25 22:33 50.41066 6.41463 37204 ft 487 kts 104°
2026-04-25 22:34 50.39596 6.51857 37196 ft 489 kts 104°
2026-04-25 22:34 50.38159 6.62301 37194 ft 491 kts 103°
2026-04-25 22:35 50.36710 6.72752 37193 ft 491 kts 104°
2026-04-25 22:35 50.35246 6.83185 37190 ft 490 kts 104°
2026-04-25 22:36 50.33769 6.93609 37187 ft 490 kts 104°
2026-04-25 22:36 50.32288 7.03984 37187 ft 492 kts 104°
2026-04-25 22:37 50.30786 7.14441 37182 ft 493 kts 104°
2026-04-25 22:37 50.29273 7.24900 37184 ft 493 kts 104°
2026-04-25 22:38 50.27751 7.35354 37185 ft 493 kts 104°
2026-04-25 22:38 50.26219 7.45798 37186 ft 493 kts 104°
2026-04-25 22:39 50.24676 7.56251 37185 ft 493 kts 104°
2026-04-25 22:39 50.23128 7.66703 37182 ft 494 kts 104°
2026-04-25 22:40 50.21578 7.77098 37184 ft 493 kts 104°
2026-04-25 22:40 50.20010 7.87533 37181 ft 494 kts 104°
2026-04-25 22:41 50.18432 7.97975 37177 ft 494 kts 104°
2026-04-25 22:41 50.16842 8.08422 37180 ft 495 kts 104°
2026-04-25 22:42 50.15245 8.18853 37168 ft 494 kts 104°
2026-04-25 22:42 50.13637 8.29287 37169 ft 495 kts 104°
2026-04-25 22:43 50.11672 8.39553 37172 ft 493 kts 116°
2026-04-25 22:43 50.08277 8.48775 37184 ft 497 kts 124°
2026-04-25 22:44 50.04405 8.57815 37186 ft 505 kts 126°
2026-04-25 22:44 50.00439 8.66843 37184 ft 504 kts 126°
2026-04-25 22:45 49.96496 8.75851 37181 ft 503 kts 126°
2026-04-25 22:45 49.92592 8.84797 37174 ft 503 kts 126°
2026-04-25 22:46 49.88664 8.93784 37164 ft 503 kts 126°
2026-04-25 22:46 49.84723 9.02769 37162 ft 503 kts 126°
2026-04-25 22:47 49.80782 9.11717 37264 ft 504 kts 124°
2026-04-25 22:47 49.78796 9.16215 37155 ft 508 kts 124°
2026-04-25 22:47 49.76791 9.20751 37161 ft 511 kts 124°
2026-04-25 22:48 49.72763 9.29843 37162 ft 512 kts 124°
2026-04-25 22:48 49.68753 9.38859 37160 ft 512 kts 124°
2026-04-25 22:49 49.64712 9.47913 37151 ft 512 kts 124°
2026-04-25 22:49 49.60661 9.56959 37148 ft 512 kts 124°
2026-04-25 22:50 49.56601 9.65995 37134 ft 512 kts 124°
2026-04-25 22:50 49.52534 9.75016 37152 ft 512 kts 124°
2026-04-25 22:51 49.48463 9.84014 37156 ft 513 kts 124°
2026-04-25 22:51 49.44400 9.92965 37158 ft 513 kts 124°
2026-04-25 22:52 49.40302 10.01963 37157 ft 514 kts 124°
2026-04-25 22:52 49.36885 10.09443 37156 ft 514 kts 124°
2026-04-25 22:53 49.32077 10.19931 37157 ft 514 kts 124°
2026-04-25 22:53 49.27951 10.28899 37153 ft 514 kts 124°
2026-04-25 22:54 49.23722 10.37735 37156 ft 515 kts 130°
2026-04-25 22:54 49.18742 10.45633 37173 ft 515 kts 135°
2026-04-25 22:55 49.13712 10.53333 37181 ft 515 kts 130°
2026-04-25 22:55 49.09896 10.62503 37186 ft 511 kts 112°
2026-04-25 22:56 49.07262 10.72578 37179 ft 511 kts 108°
2026-04-25 22:56 49.04852 10.82787 37167 ft 512 kts 108°
2026-04-25 22:57 49.02431 10.92995 37167 ft 512 kts 108°
2026-04-25 22:57 48.99965 11.03176 37151 ft 512 kts 108°
2026-04-25 22:58 48.97476 11.13328 37139 ft 512 kts 109°
2026-04-25 22:58 48.94976 11.23469 37137 ft 511 kts 109°
2026-04-25 22:59 48.92469 11.33596 37134 ft 511 kts 109°
2026-04-25 22:59 48.89969 11.43654 37131 ft 511 kts 109°
2026-04-25 23:00 48.87444 11.53767 37130 ft 512 kts 109°
2026-04-25 23:00 48.84909 11.63877 37129 ft 512 kts 109°
2026-04-25 23:01 48.82376 11.73930 37129 ft 512 kts 109°
2026-04-25 23:01 48.79819 11.84035 37127 ft 512 kts 109°
2026-04-25 23:02 48.77259 11.94111 37126 ft 512 kts 109°
2026-04-25 23:02 48.74685 12.04193 37123 ft 513 kts 109°
2026-04-25 23:03 48.72101 12.14273 37115 ft 513 kts 109°
2026-04-25 23:03 48.69524 12.24275 37039 ft 510 kts 109°
2026-04-25 23:04 48.68235 12.29260 36413 ft 510 kts 109°
2026-04-25 23:04 48.67362 12.32631 36099 ft 507 kts 109°
2026-04-25 23:04 48.65663 12.39174 35563 ft 500 kts 109°
2026-04-25 23:04 48.64392 12.44059 35049 ft 498 kts 109°
2026-04-25 23:05 48.63124 12.48926 34480 ft 497 kts 109°
2026-04-25 23:05 48.61856 12.53781 33845 ft 497 kts 109°
2026-04-25 23:05 48.61016 12.56994 33445 ft 496 kts 109°
2026-04-25 23:05 48.59739 12.61871 33141 ft 499 kts 109°
2026-04-25 23:06 48.57160 12.71686 33107 ft 504 kts 109°
2026-04-25 23:06 48.54139 12.83121 33106 ft 504 kts 109°
2026-04-25 23:07 48.51957 12.91342 33101 ft 504 kts 110°
2026-04-25 23:07 48.49347 13.01144 33104 ft 504 kts 110°
2026-04-25 23:08 48.46726 13.10947 33102 ft 504 kts 110°
2026-04-25 23:08 48.44185 13.20692 32634 ft 499 kts 105°
2026-04-25 23:09 48.43349 13.25742 31941 ft 495 kts 96°
2026-04-25 23:09 48.43061 13.30889 31212 ft 491 kts 86°
2026-04-25 23:09 48.43209 13.36014 30491 ft 490 kts 83°
2026-04-25 23:09 48.43463 13.41137 29675 ft 491 kts 82°
2026-04-25 23:10 48.43727 13.46259 28949 ft 489 kts 82°
2026-04-25 23:10 48.43986 13.51349 28314 ft 485 kts 82°
2026-04-25 23:10 48.44235 13.56330 27727 ft 481 kts 82°
2026-04-25 23:10 48.44484 13.61344 27131 ft 477 kts 82°
2026-04-25 23:11 48.44727 13.66301 26564 ft 473 kts 82°
2026-04-25 23:11 48.44966 13.71224 25997 ft 469 kts 82°
2026-04-25 23:11 48.45201 13.76110 25441 ft 465 kts 82°
2026-04-25 23:11 48.45432 13.80947 24905 ft 461 kts 82°
2026-04-25 23:12 48.45659 13.85753 24371 ft 458 kts 82°
2026-04-25 23:12 48.45882 13.90518 23848 ft 454 kts 83°
2026-04-25 23:12 48.46100 13.95235 23239 ft 451 kts 82°
2026-04-25 23:12 48.46319 13.99973 22531 ft 450 kts 82°
2026-04-25 23:13 48.46531 14.04617 21943 ft 447 kts 82°
2026-04-25 23:13 48.46741 14.09269 21366 ft 443 kts 82°
2026-04-25 23:13 48.46948 14.13900 20787 ft 440 kts 83°
2026-04-25 23:13 48.47152 14.18481 20207 ft 436 kts 83°
2026-04-25 23:14 48.47352 14.23035 19670 ft 433 kts 83°
2026-04-25 23:14 48.47550 14.27550 19118 ft 431 kts 83°
2026-04-25 23:14 48.47744 14.32043 18582 ft 428 kts 83°
2026-04-25 23:14 48.47935 14.36508 18003 ft 425 kts 83°
2026-04-25 23:15 48.48123 14.40943 17440 ft 422 kts 83°
2026-04-25 23:15 48.48310 14.45340 17120 ft 420 kts 83°
2026-04-25 23:15 48.48493 14.49693 17065 ft 422 kts 83°
2026-04-25 23:15 48.48676 14.54118 17054 ft 422 kts 83°
2026-04-25 23:16 48.48856 14.58534 17074 ft 422 kts 83°
2026-04-25 23:16 48.49034 14.62948 17059 ft 422 kts 83°
2026-04-25 23:16 48.49211 14.67362 17054 ft 422 kts 83°
2026-04-25 23:16 48.49386 14.71776 17050 ft 422 kts 83°
2026-04-25 23:17 48.49576 14.76192 17062 ft 421 kts 81°
2026-04-25 23:17 48.49782 14.80590 17048 ft 421 kts 82°
2026-04-25 23:17 48.49977 14.85000 17055 ft 422 kts 82°
2026-04-25 23:17 48.50160 14.89418 17042 ft 422 kts 82°
2026-04-25 23:18 48.50335 14.93833 17039 ft 422 kts 82°
2026-04-25 23:18 48.50505 14.98259 17040 ft 422 kts 82°
2026-04-25 23:18 48.50672 15.02676 17040 ft 422 kts 82°
2026-04-25 23:18 48.50833 15.07043 17033 ft 422 kts 82°
2026-04-25 23:19 48.50994 15.11456 17031 ft 422 kts 82°
2026-04-25 23:19 48.51153 15.15885 17030 ft 421 kts 82°
2026-04-25 23:19 48.51308 15.20270 16616 ft 416 kts 82°
2026-04-25 23:19 48.51463 15.24635 15917 ft 417 kts 83°
2026-04-25 23:20 48.51614 15.28988 15301 ft 415 kts 83°
2026-04-25 23:20 48.51761 15.33343 14751 ft 412 kts 83°
2026-04-25 23:20 48.51906 15.37646 14218 ft 409 kts 83°
2026-04-25 23:20 48.52045 15.41862 13655 ft 406 kts 84°
2026-04-25 23:21 48.51989 15.46174 13156 ft 405 kts 91°
2026-04-25 23:21 48.51787 15.50293 13013 ft 391 kts 89°
2026-04-25 23:21 48.51597 15.54294 13003 ft 373 kts 90°
2026-04-25 23:21 48.51193 15.58074 13006 ft 357 kts 97°
2026-04-25 23:22 48.50651 15.61648 13000 ft 343 kts 99°
2026-04-25 23:22 48.50031 15.65061 13004 ft 335 kts 102°
2026-04-25 23:22 48.49340 15.68411 13007 ft 334 kts 104°
2026-04-25 23:23 48.47832 15.75045 13010 ft 335 kts 105°
2026-04-25 23:23 48.47050 15.78369 13006 ft 336 kts 105°
2026-04-25 23:23 48.46263 15.81701 13005 ft 337 kts 105°
2026-04-25 23:23 48.45480 15.85029 13003 ft 337 kts 105°
2026-04-25 23:24 48.44709 15.88320 13005 ft 337 kts 105°
2026-04-25 23:24 48.43930 15.91651 13005 ft 337 kts 105°
2026-04-25 23:24 48.43152 15.94983 13004 ft 337 kts 105°
2026-04-25 23:24 48.42374 15.98313 13006 ft 337 kts 105°
2026-04-25 23:25 48.41597 16.01637 13003 ft 337 kts 105°
2026-04-25 23:25 48.40818 16.04964 13001 ft 337 kts 105°
2026-04-25 23:25 48.40042 16.08274 12916 ft 333 kts 105°
2026-04-25 23:25 48.39271 16.11550 12555 ft 332 kts 105°
2026-04-25 23:26 48.38496 16.14834 12179 ft 332 kts 105°
2026-04-25 23:26 48.37733 16.18069 11822 ft 331 kts 105°
2026-04-25 23:26 48.36963 16.21328 11494 ft 329 kts 105°
2026-04-25 23:26 48.36200 16.24558 11160 ft 328 kts 106°
2026-04-25 23:27 48.35437 16.27783 10812 ft 326 kts 106°
2026-04-25 23:27 48.34672 16.31011 10476 ft 325 kts 106°
2026-04-25 23:27 48.33915 16.34200 10166 ft 323 kts 106°
2026-04-25 23:27 48.33159 16.37377 9821 ft 322 kts 107°
2026-04-25 23:28 48.32406 16.40537 9461 ft 320 kts 107°
2026-04-25 23:28 48.31705 16.43659 9107 ft 318 kts 101°
2026-04-25 23:28 48.31414 16.46915 8785 ft 312 kts 83°
2026-04-25 23:28 48.31677 16.50126 8264 ft 311 kts 79°
2026-04-25 23:29 48.31379 16.53372 7780 ft 318 kts 108°
2026-04-25 23:29 48.30340 16.56253 7578 ft 310 kts 123°
2026-04-25 23:29 48.28983 16.58695 7393 ft 300 kts 134°
2026-04-25 23:29 48.27411 16.60686 7194 ft 291 kts 145°
2026-04-25 23:30 48.25707 16.62165 7003 ft 282 kts 156°
2026-04-25 23:30 48.23965 16.63497 6906 ft 275 kts 144°
2026-04-25 23:30 48.22686 16.65540 6709 ft 272 kts 122°
2026-04-25 23:30 48.21658 16.67936 6373 ft 274 kts 118°
2026-04-25 23:31 48.20669 16.70364 6192 ft 271 kts 118°
2026-04-25 23:31 48.19692 16.72779 6177 ft 271 kts 118°
2026-04-25 23:31 48.18712 16.75203 6179 ft 271 kts 118°
2026-04-25 23:31 48.17734 16.77616 6181 ft 271 kts 118°
2026-04-25 23:32 48.16754 16.80030 6179 ft 271 kts 118°
2026-04-25 23:32 48.15770 16.82446 6178 ft 271 kts 118°
2026-04-25 23:32 48.14789 16.84854 6179 ft 271 kts 118°
2026-04-25 23:32 48.13816 16.87240 6177 ft 271 kts 118°
2026-04-25 23:33 48.12832 16.89647 6165 ft 271 kts 118°
2026-04-25 23:33 48.11848 16.92054 6162 ft 271 kts 118°
2026-04-25 23:33 48.10861 16.94465 6160 ft 271 kts 118°
2026-04-25 23:33 48.09882 16.96859 6134 ft 265 kts 118°
2026-04-25 23:34 48.08931 16.99167 6036 ft 257 kts 118°
2026-04-25 23:34 48.08001 17.01417 5893 ft 252 kts 118°
2026-04-25 23:34 48.07094 17.03601 5677 ft 247 kts 118°
2026-04-25 23:34 48.06090 17.05649 5277 ft 245 kts 134°
2026-04-25 23:35 48.04646 17.06950 4781 ft 242 kts 163°
2026-04-25 23:35 48.03012 17.07154 4319 ft 232 kts 192°
2026-04-25 23:35 48.01584 17.06276 3880 ft 216 kts 221°
2026-04-25 23:35 48.00686 17.04613 3442 ft 200 kts 250°
2026-04-25 23:36 48.00305 17.02659 3199 ft 194 kts 262°
2026-04-25 23:36 48.00048 17.00676 3163 ft 194 kts 263°
2026-04-25 23:36 47.99811 16.98701 3164 ft 193 kts 263°
2026-04-25 23:36 47.99584 16.96732 3161 ft 192 kts 263°
2026-04-25 23:37 47.99401 16.94766 3151 ft 191 kts 271°
2026-04-25 23:37 47.99575 16.92823 3168 ft 187 kts 285°
2026-04-25 23:37 48.00006 16.91039 3169 ft 184 kts 293°
2026-04-25 23:37 48.00541 16.89306 3167 ft 183 kts 295°
2026-04-25 23:38 48.01077 16.87580 3170 ft 184 kts 294°
2026-04-25 23:38 48.01608 16.85849 3179 ft 183 kts 294°
2026-04-25 23:38 48.02141 16.84126 3176 ft 182 kts 294°
2026-04-25 23:38 48.02687 16.82412 3176 ft 182 kts 296°
2026-04-25 23:39 48.03258 16.80726 3181 ft 182 kts 296°
2026-04-25 23:39 48.03813 16.79119 3172 ft 166 kts 296°
2026-04-25 23:39 48.04331 16.77613 3172 ft 159 kts 296°
2026-04-25 23:39 48.04798 16.76232 3174 ft 142 kts 295°
2026-04-25 23:40 48.05234 16.74922 3128 ft 141 kts 295°
2026-04-25 23:40 48.05674 16.73620 2938 ft 140 kts 295°
2026-04-25 23:40 48.06101 16.72312 2761 ft 139 kts 295°
2026-04-25 23:40 48.06513 16.71028 2571 ft 138 kts 295°
2026-04-25 23:41 48.06931 16.69739 2390 ft 138 kts 295°
2026-04-25 23:41 48.07350 16.68455 2206 ft 137 kts 294°
2026-04-25 23:41 48.07760 16.67183 2010 ft 131 kts 291°
2026-04-25 23:41 48.08150 16.65976 1849 ft 128 kts 290°
2026-04-25 23:42 48.08543 16.64771 1686 ft 129 kts 291°
2026-04-25 23:42 48.08935 16.63573 1503 ft 128 kts 292°
2026-04-25 23:42 48.09328 16.62373 1346 ft 128 kts 293°
2026-04-25 23:42 48.09721 16.61176 1157 ft 128 kts 291°
2026-04-25 23:43 48.10107 16.59994 998 ft 128 kts 291°
2026-04-25 23:43 48.10492 16.58801 833 ft 128 kts 290°
2026-04-25 23:43 48.10891 16.57612 658 ft 126 kts 292°
2026-04-25 23:43 48.11224 16.56564 624 ft 72 kts 300°
2026-04-25 23:44 48.11311 16.56316 621 ft 18 kts 296°
2026-04-25 23:44 48.11367 16.56139 624 ft 19 kts 296°
2026-04-25 23:44 48.11426 16.55961 621 ft 19 kts 297°
2026-04-25 23:44 48.11487 16.55783 624 ft 22 kts 296°
2026-04-25 23:45 48.11572 16.55519 623 ft 29 kts 296°
2026-04-25 23:45 48.11695 16.55294 626 ft 27 kts 315°
2026-04-25 23:45 48.11783 16.55170 626 ft 0 kts 324°
2026-04-25 23:47 48.11796 16.55159 625 ft 5 kts 332°
2026-04-25 23:47 48.11850 16.55143 626 ft 11 kts
2026-04-25 23:47 48.11879 16.55197 618 ft 10 kts 81°
2026-04-25 23:48 48.11844 16.55328 628 ft 11 kts 116°
2026-04-25 23:48 48.11807 16.55442 626 ft 17 kts 117°
2026-04-25 23:48 48.11742 16.55642 623 ft 22 kts 115°
2026-04-25 23:48 48.11673 16.55856 628 ft 23 kts 116°
2026-04-25 23:49 48.11600 16.56077 625 ft 24 kts 115°
2026-04-25 23:49 48.11526 16.56307 628 ft 25 kts 116°
2026-04-25 23:49 48.11448 16.56546 628 ft 26 kts 116°
2026-04-25 23:49 48.11367 16.56793 628 ft 27 kts 116°
2026-04-25 23:50 48.11283 16.57047 625 ft 28 kts 116°
2026-04-25 23:50 48.11243 16.57172 619 ft 4 kts 115°
2026-04-25 23:50 48.11247 16.57273 628 ft 11 kts 48°
2026-04-25 23:50 48.11343 16.57352 624 ft 18 kts 25°
2026-04-25 23:51 48.11459 16.57433 625 ft 19 kts 25°
2026-04-25 23:51 48.11582 16.57439 623 ft 18 kts 344°
2026-04-25 23:51 48.11703 16.57389 626 ft 18 kts 345°
2026-04-25 23:51 48.11818 16.57316 627 ft 18 kts 310°
2026-04-25 23:52 48.11872 16.57158 627 ft 17 kts 296°
2026-04-25 23:52 48.11906 16.57054 626 ft 17 kts 296°
2026-04-25 23:52 48.11912 16.57008 621 ft 6 kts 261°
2026-04-25 23:52 48.11879 16.56958 620 ft 8 kts 205°
2026-04-25 23:53 48.11846 16.56935 624 ft 3 kts 208°
2026-04-25 23:53 48.11846 16.56934 624 ft 0 kts 209°